TimeEDT,TemperatureF,Dew PointF,Humidity,Sea Level PressureIn,VisibilityMPH,Wind Direction,Wind SpeedMPH,Gust SpeedMPH,PrecipitationIn,Events,Conditions,WindDirDegrees,DateUTC
12:15 AM,38.8,37.9,97,30.13,7.0,Calm,Calm,-,N/A,,Clear,0,2013-10-21 04:15:00
12:35 AM,38.7,37.9,97,30.12,7.0,Calm,Calm,-,N/A,,Clear,0,2013-10-21 04:35:00
12:55 AM,37.4,36.5,97,30.13,4.0,Calm,Calm,-,N/A,,Clear,0,2013-10-21 04:55:00
1:15 AM,37.0,36.5,98,30.12,7.0,Calm,Calm,-,N/A,,Clear,0,2013-10-21 05:15:00
1:35 AM,37.0,36.1,97,30.12,7.0,Calm,Calm,-,N/A,,Clear,0,2013-10-21 05:35:00
1:55 AM,37.4,36.7,97,30.12,7.0,Calm,Calm,-,N/A,,Clear,0,2013-10-21 05:55:00
2:15 AM,36.5,35.6,97,30.13,7.0,Calm,Calm,-,N/A,,Clear,0,2013-10-21 06:15:00
2:35 AM,36.3,35.6,97,30.13,5.0,Calm,Calm,-,N/A,,Clear,0,2013-10-21 06:35:00
2:55 AM,36.0,35.2,97,30.12,3.0,Calm,Calm,-,N/A,,Clear,0,2013-10-21 06:55:00
3:15 AM,35.8,35.1,97,30.12,5.0,Calm,Calm,-,N/A,,Mostly Cloudy,0,2013-10-21 07:15:00
3:35 AM,35.6,34.9,97,30.12,4.0,Calm,Calm,-,N/A,,Overcast,0,2013-10-21 07:35:00
3:55 AM,35.2,34.5,97,30.12,0.2,Calm,Calm,-,N/A,Fog,Fog,0,2013-10-21 07:55:00
4:15 AM,34.7,34.0,97,30.12,1.2,Calm,Calm,-,N/A,,Mist,0,2013-10-21 08:15:00
4:35 AM,34.2,33.6,98,30.12,0.2,Calm,Calm,-,N/A,Fog,Fog,0,2013-10-21 08:35:00
4:55 AM,34.0,33.4,98,30.12,5.0,Calm,Calm,-,N/A,,Clear,0,2013-10-21 08:55:00
5:15 AM,33.8,33.3,98,30.12,4.0,Calm,Calm,-,N/A,,Clear,0,2013-10-21 09:15:00
5:35 AM,33.6,32.9,97,30.12,4.0,Calm,Calm,-,N/A,,Clear,0,2013-10-21 09:35:00
5:55 AM,33.4,32.9,98,30.13,7.0,Calm,Calm,-,N/A,,Clear,0,2013-10-21 09:55:00
6:15 AM,33.3,32.7,98,30.14,7.0,Calm,Calm,-,N/A,,Clear,0,2013-10-21 10:15:00
6:35 AM,33.1,32.5,98,30.14,10.0,Calm,Calm,-,N/A,,Clear,0,2013-10-21 10:35:00
6:55 AM,32.5,32.0,98,30.14,10.0,Calm,Calm,-,N/A,,Clear,0,2013-10-21 10:55:00
7:15 AM,32.9,32.2,97,30.14,5.0,Calm,Calm,-,N/A,,Clear,0,2013-10-21 11:15:00
7:35 AM,32.0,32.0,100,30.15,10.0,Calm,Calm,-,N/A,,Clear,0,2013-10-21 11:35:00
7:55 AM,32.0,32.0,100,30.16,7.0,Calm,Calm,-,N/A,,Clear,0,2013-10-21 11:55:00
8:15 AM,33.4,32.9,98,30.16,5.0,Calm,Calm,-,N/A,,Clear,0,2013-10-21 12:15:00
8:35 AM,34.7,34.0,97,30.16,5.0,Calm,Calm,-,N/A,,Scattered Clouds,0,2013-10-21 12:35:00
8:55 AM,36.7,36.3,99,30.17,0.2,Calm,Calm,-,N/A,Fog,Fog,0,2013-10-21 12:55:00
9:15 AM,38.1,37.8,99,30.17,0.2,Calm,Calm,-,N/A,Fog,Fog,0,2013-10-21 13:15:00
9:35 AM,40.1,39.7,99,30.17,0.2,Calm,Calm,-,N/A,Fog,Fog,0,2013-10-21 13:35:00
9:55 AM,42.3,41.9,99,30.17,3.0,Calm,Calm,-,N/A,,Mostly Cloudy,0,2013-10-21 13:55:00
10:15 AM,44.8,44.4,99,30.17,10.0,Calm,Calm,-,N/A,,Scattered Clouds,0,2013-10-21 14:15:00
10:35 AM,47.1,45.5,94,30.16,10.0,Calm,Calm,-,N/A,,Clear,0,2013-10-21 14:35:00
10:55 AM,50.5,46.2,85,30.16,10.0,SSE,3.5,-,N/A,,Clear,150,2013-10-21 14:55:00
11:15 AM,54.5,46.0,73,30.16,10.0,Calm,Calm,-,N/A,,Clear,0,2013-10-21 15:15:00
11:35 AM,57.7,46.4,66,30.15,10.0,ESE,3.5,-,N/A,,Clear,110,2013-10-21 15:35:00
11:55 AM,59.5,46.4,62,30.16,10.0,Calm,Calm,-,N/A,,Clear,0,2013-10-21 15:55:00
12:15 PM,60.8,46.6,59,30.15,10.0,South,3.5,-,N/A,,Clear,170,2013-10-21 16:15:00
12:35 PM,60.8,44.4,55,30.15,10.0,South,3.5,-,N/A,,Clear,170,2013-10-21 16:35:00
12:55 PM,62.2,43.9,51,30.14,10.0,East,4.6,-,N/A,,Clear,80,2013-10-21 16:55:00
1:15 PM,63.7,42.4,46,30.13,10.0,ESE,3.5,-,N/A,,Clear,120,2013-10-21 17:15:00
1:55 PM,64.2,38.1,38,30.10,10.0,Calm,Calm,-,N/A,,Clear,0,2013-10-21 17:55:00
2:15 PM,64.4,39.0,39,30.09,10.0,WSW,3.5,-,N/A,,Clear,240,2013-10-21 18:15:00
2:35 PM,64.8,40.3,41,30.09,10.0,Calm,Calm,-,N/A,,Clear,0,2013-10-21 18:35:00
2:55 PM,65.3,40.8,41,30.07,10.0,SW,3.5,-,N/A,,Clear,230,2013-10-21 18:55:00
3:15 PM,65.7,41.2,41,30.07,10.0,SW,3.5,-,N/A,,Clear,230,2013-10-21 19:15:00
3:35 PM,65.3,40.8,41,30.07,10.0,Calm,Calm,-,N/A,,Clear,0,2013-10-21 19:35:00
3:55 PM,65.1,40.5,40,30.06,10.0,Calm,Calm,-,N/A,,Clear,0,2013-10-21 19:55:00
4:15 PM,64.9,40.6,41,30.05,10.0,Calm,Calm,-,N/A,,Clear,0,2013-10-21 20:15:00
4:35 PM,65.3,40.6,40,30.05,10.0,Calm,Calm,-,N/A,,Clear,0,2013-10-21 20:35:00
4:55 PM,65.7,43.0,44,30.05,10.0,SW,3.5,-,N/A,,Clear,230,2013-10-21 20:55:00
5:15 PM,63.5,47.3,56,30.05,10.0,Calm,Calm,-,N/A,,Clear,0,2013-10-21 21:15:00
5:35 PM,61.9,50.7,67,30.04,10.0,Calm,Calm,-,N/A,,Clear,0,2013-10-21 21:35:00
5:55 PM,59.4,52.5,78,30.04,10.0,Calm,Calm,-,N/A,,Clear,0,2013-10-21 21:55:00
6:15 PM,58.8,51.6,77,30.04,10.0,Calm,Calm,-,N/A,,Clear,0,2013-10-21 22:15:00
6:35 PM,58.3,49.5,72,30.05,10.0,Calm,Calm,-,N/A,,Clear,0,2013-10-21 22:35:00
6:55 PM,55.9,50.2,81,30.05,10.0,Calm,Calm,-,N/A,,Clear,0,2013-10-21 22:55:00
7:15 PM,54.1,50.7,88,30.05,10.0,Calm,Calm,-,N/A,,Clear,0,2013-10-21 23:15:00
7:35 PM,52.7,49.5,89,30.04,10.0,Calm,Calm,-,N/A,,Clear,0,2013-10-21 23:35:00
7:55 PM,52.3,49.6,91,30.04,10.0,Calm,Calm,-,N/A,,Clear,0,2013-10-21 23:55:00
8:15 PM,50.5,48.2,92,30.04,10.0,Calm,Calm,-,N/A,,Clear,0,2013-10-22 00:15:00
8:35 PM,50.5,48.6,93,30.04,10.0,Calm,Calm,-,N/A,,Clear,0,2013-10-22 00:35:00
8:55 PM,49.6,47.7,93,30.04,7.0,Calm,Calm,-,N/A,,Clear,0,2013-10-22 00:55:00
9:15 PM,49.5,48.0,95,30.06,7.0,Calm,Calm,-,N/A,,Clear,0,2013-10-22 01:15:00
9:35 PM,48.4,46.9,95,30.05,7.0,Calm,Calm,-,N/A,,Clear,0,2013-10-22 01:35:00
9:55 PM,48.4,46.9,95,30.05,10.0,Calm,Calm,-,N/A,,Clear,0,2013-10-22 01:55:00
10:15 PM,48.2,46.9,95,30.04,7.0,Calm,Calm,-,N/A,,Clear,0,2013-10-22 02:15:00
10:35 PM,47.7,46.4,95,30.04,10.0,Calm,Calm,-,N/A,,Clear,0,2013-10-22 02:35:00
10:55 PM,46.9,45.7,95,30.04,5.0,Calm,Calm,-,N/A,,Clear,0,2013-10-22 02:55:00
11:15 PM,46.8,45.7,96,30.03,7.0,Calm,Calm,-,N/A,,Clear,0,2013-10-22 03:15:00
11:35 PM,46.4,45.3,96,30.02,4.0,Calm,Calm,-,N/A,,Clear,0,2013-10-22 03:35:00
11:55 PM,45.7,44.8,97,30.02,7.0,Calm,Calm,-,N/A,,Clear,0,2013-10-22 03:55:00